Weather History for Avignon, U, France

Change the Weather History Date:

Monday, March 10, 2014

  Actual Average Record
Temperature  
Mean Temperature 50 °F -  
Max Temperature 66 °F - - ()
Min Temperature 33 °F - - ()
Degree Days  
Heating Degree Days 16    
Moisture  
Dew Point 38 °F    
Average Humidity 63    
Maximum Humidity 93    
Minimum Humidity 28    
Precipitation  
Precipitation 0.00 in - - ()
Sea Level Pressure  
Sea Level Pressure 30.16 in    
Wind  
Wind Speed 2 mph ()    
Max Wind Speed 7 mph    
Max Gust Speed -    
Visibility 11.0 miles    
Events      
T = Trace of Precipitation, MM = Missing Value Source: Averaged Metar Reports

Daily Weather History Graph

Daily Weather History Graph

Search for Another Location

Airport:

Trip Planner

Search our weather history database for the weather conditions in past years. The results will help you decide how hot, cold, wet, or windy it might be!

Date:

Astronomy

Mar. 10, 2014 Rise Set
Actual Time 7:01 AM CET 6:40 PM CET
Civil Twilight 6:33 AM CET 7:08 PM CET
Nautical Twilight 5:59 AM CET 7:42 PM CET
Astronomical Twilight 5:26 AM CET 8:16 PM CET
Moon 1:01 PM CET (3/10) 3:10 AM CET (3/10)
Length of Visible Light 12h 35m
Length of Day
11h 38m
Waxing Gibbous, 68% of the Moon is Illuminated
Mar 10
Waxing Gibbous
Mar 16
Full
Mar 24
Last Quarter
Mar 30
New
Apr 7
First Quarter

Hourly Weather History & Observations

Time (CET) Temp. Dew Point Humidity Pressure Visibility Wind Dir Wind Speed Gust Speed Precip Events Conditions
12:00 AM 40 °F 35 °F 75% 30.28 in 14 mi SSE 2.3 mph - -   Clear
1:00 AM 40 °F 35 °F 78% 30.27 in 9 mi SE 2.3 mph - -   Clear
2:00 AM 38 °F 36 °F 87% 30.27 in 10 mi North 1.2 mph - -   Clear
3:00 AM 37 °F 35 °F 88% 30.25 in 6 mi North 2.3 mph - -   Clear
4:00 AM 36 °F 34 °F 88% 30.24 in 6 mi Calm Calm - -   Clear
5:00 AM 34 °F 32 °F 90% 30.23 in 4 mi North 2.3 mph - -   Clear
6:00 AM 34 °F 33 °F 93% 30.23 in 4 mi North 2.3 mph - -   Clear
7:00 AM 33 °F 31 °F 87% 30.21 in 9 mi East 1.2 mph - -   Clear
8:00 AM 35 °F 33 °F 92% 30.20 in 8 mi SE 1.2 mph - -   Clear
9:00 AM 45 °F 37 °F 66% 30.19 in 11 mi Calm Calm - -   Clear
10:00 AM 51 °F 38 °F 52% 30.17 in 15 mi Calm Calm - -   Clear
11:00 AM 53 °F 39 °F 48% 30.13 in 14 mi Calm Calm - -   Clear
12:00 PM 57 °F 40 °F 42% 30.11 in 16 mi North 1.2 mph - -   Clear
1:00 PM 61 °F 41 °F 36% 30.09 in 22 mi North 3.5 mph - -   Clear
2:00 PM 63 °F 41 °F 32% 30.07 in 11 mi North 6.9 mph - -   Clear
3:00 PM 67 °F 43 °F 30% 30.06 in 22 mi North 6.9 mph - -   Clear
4:00 PM 65 °F 40 °F 28% 30.06 in 25 mi North 6.9 mph - -   Clear
5:00 PM 65 °F 41 °F 30% 30.06 in 25 mi North 4.6 mph - -   Clear
6:00 PM 58 °F 43 °F 46% 30.08 in 17 mi Calm Calm - -   Clear
7:00 PM 54 °F 41 °F 51% 30.11 in 19 mi Calm Calm - -   Clear
8:00 PM 49 °F 38 °F 56% 30.12 in 22 mi Calm Calm - -   Clear
9:00 PM 45 °F 37 °F 65% 30.14 in 22 mi Calm Calm - -   Clear
10:00 PM 45 °F 40 °F 75% 30.17 in 14 mi Calm Calm - -   Clear
11:00 PM 43 °F 39 °F 79% 30.18 in 11 mi Calm Calm - -   Clear